Back to catalog

STARLINK-6218

AliveCommunicationsVLEO
NORAD 57368·PAYLOAD·🇺🇸 United States

Launched Jul 16, 2023 from Cape Canaveral Space Force Station

Loading…

Next Passes (next 24 hours)

TLE

FreshSource: CelesTrak SupGP

Epoch: Sep 14, 2026, 13:42 UTC

1 57368C 23099AS  26257.57131944 -.00001423  00000+0 -51533-4 0  2577
2 57368  42.9992 255.0412 0001462 269.6960 157.4765 15.27583954    11

Track STARLINK-6218 in real time with AllMySat

Download on the App Store